Tracking 19709 objects as of 20-Jun-2019
HD Live streaming from Space Station
objects crossing your sky now

FENGYUN 1C DEB

Track FENGYUN 1C DEB now!
10-day predictions


NORAD ID: 31710
Int'l Code: 1999-025CDH
Perigee: 474.8 km
Apogee: 603.1 km
Inclination: 99.0 °
Period: 95.3 minutes
Semi major axis: 6909 km
RCS: 0.0102 m2 (small)
Launch date: May 10, 1999
Source: People's Republic of China (PRC)
Launch site: Taiyaun Space Center, China (TSC)

Note: This is SATELLITE DEBRIS
aabbcc
Your satellite tracking list
Your tracking list is empty




NASA's NSSDC Master Catalog

Two Line Element Set (TLE):
1 31710U 99025CDH 19169.36851493  .00002573  00000-0  14240-3 0  9993
2 31710  98.9892  29.1863 0092824 103.3549 257.8046 15.11430591652452
Source of the keplerian elements: AFSPC